Regional Weather Roundup
Issued by NWS Cleveland, OH

Home | Current Version | Previous Version | Text Only | Print | Product List | Glossary Off
Versions: 1 2 3 4 5 6 7 8 9 10 11 12 13 14 15 16 17 18 19 20 21 22 23 24 25 26 27 28 29 30 31 32 33 34 35 36 37 38 39 40 41 42 43 44 45 46 47 48 49 50

495
ASUS41 KCLE 222200
RWRCLE
OHIO REGIONAL WEATHER ROUNDUP
NATIONAL WEATHER SERVICE WILMINGTON, OH
500 PM EST THU FEB 22 2018

NOTE: "FAIR" INDICATES FEW OR NO CLOUDS BELOW 12,000 FEET WITH NO
SIGNIFICANT WEATHER AND/OR OBSTRUCTIONS TO VISIBILITY.

OHZ001>008-015>018-024>027-034-035-043-044-222300-
   NORTHWEST OHIO

CITY           SKY/WX    TMP DP  RH WIND       PRES   REMARKS
DEFIANCE       CLOUDY    37  32  82 E17       30.46F
FINDLAY        CLOUDY    37  32  82 NE14      30.45F
TOLEDO EXPRESS CLOUDY    36  31  82 NE15      30.50F
TOLEDO EXEC    CLOUDY    35  27  72 E14G20    30.53S WCI  26
LIMA           CLOUDY    37  37 100 NE10      30.42F
$$

OHZ009>014-019>023-028>033-038-089-222300-
   NORTHEAST OHIO

CITY           SKY/WX    TMP DP  RH WIND       PRES   REMARKS
CLE-HOPKINS    CLOUDY    34  32  92 NE17      30.53R FOG     WCI  23
CLE-LAKEFRONT  CLOUDY    33  31  92 NE24G32   30.50R WCI  20
CUY CO. ARPT   CLOUDY    36  34  93 NE14      30.50R FOG
LORAIN-ELYRIA  CLOUDY    32  28  85 NE21      30.51R FOG     WCI  20
ASHTABULA      FOG       32  32 100 VRB7      30.52R VSB 1/4 WCI  26
AKRON-CANTON   CLOUDY    46  38  73 E9        30.45R
WOOSTER        NOT AVBL
MANSFIELD      PTSUNNY   46  39  76 E14       30.44S
YOUNGSTOWN     PTSUNNY   45  38  76 E8G17     30.45S
$$

OHZ042-051>053-060>062-070>072-077>081-222300-
  SOUTHWEST OHIO

CITY           SKY/WX    TMP DP  RH WIND       PRES   REMARKS
CINC-COVINGTON CLOUDY    45  43  93 E13       30.37F
CINC-LUNKEN    CLOUDY    47  43  86 NE9       30.40F
HAMILTON       CLOUDY    46  42  86 E9        30.40F
DAYTON         NOT AVBL
WRIGHT-PAT AFB NOT AVBL
DAYTON GENERAL CLOUDY    46  40  79 E10       30.39F
WILMINGTON     CLOUDY    43  42  97 E7        30.40S
$$

OHZ036-037-039>041-045>050-054>059-063>069-073>076-082>088-222300-
  CENTRAL AND SOUTHEAST OHIO

CITY           SKY/WX    TMP DP  RH WIND       PRES   REMARKS
COLUMBUS       CLOUDY    46  40  79 E12       30.42S
OSU AIRPORT    CLOUDY    47  41  80 E9        30.42S
BOLTON FIELD   NOT AVBL
RICKENBACK AFB NOT AVBL
NEWARK         CLOUDY    45  39  79 E10       30.42S
MARION         CLOUDY    47  39  74 E10       30.45R
LANCASTER      CLOUDY    44  32  62 E10       30.43S
ZANESVILLE     CLOUDY    44  39  82 E8        30.44S
NEW PHILLY     CLOUDY    44  38  79 E8        30.47R
$$




USA.gov is the U.S. government's official web portal to all federal, state and local government web resources and services.